Retour au catalogue

FGN-100-D1

ActifCommunicationsSSO
NORAD 62655·PAYLOAD·🇹🇷 Turkey
Ce nom de satellite n'a pas encore été confirmé par des sources officielles.

Lancé Jan 14, 2025 depuis Vandenberg Space Force Base

Loading…

Prochains Passages (prochaines 24 heures)

TLE

FraisSource: Space-Track

Époque: Sep 14, 2026, 11:47 UTC

1 62655U 25009AY  26257.49127796  .00024698  00000-0  51373-3 0  9998
2 62655  97.3992 345.4191 0000346 325.8677  34.2550 15.45627934 92975

Suivez FGN-100-D1 en temps réel avec AllMySat

Download on the App Store